Location: Ash Swamp
(41.5170°N, 74.6157°W)
Time: 02:26:31
(UTC+00:00)

Cosmos 2056 Rocket - Pass Details

Date: 14 July 2020
Orbit: 741 x 801 km, 74.0° (Epoch: 14 August)

Event Time Altitude Azimuth Distance (km) Brightness Sun altitude
Rises 02:35:58 0° 341° (NNW) 3,315 8.2 -18.1°
Reaches altitude 10° 02:38:23 10° 342° (NNW) 2,383 7.2 -18.4°
Maximum altitude 02:43:50 83° 70° (ENE) 812 3.5 -19.0°
Enters shadow 02:46:08 36° 155° (SSE) 1,244 4.0 -19.2°
